Flag for Marshall Islands

Past Weather in Majuro, Marshall Islands — Yesterday and Last 2 Weeks

Now
80 °F

Cloudy.


Feels Like: 87 °F
Forecast: 84 / 81 °F
Wind: 9 mph from East

Location: Majuro Atoll

Current Time: Jul 12, 2020 at 7:59:49 pm

Latest Report: Jul 12, 2020 at 6:52 pm


Visibility: 15 mi

Pressure: 29.78 "Hg

Humidity: 89%

Dew Point: 77 °F

Location of MajuroLocation

Past Weather in Majuro — Graph

°F

Majuro Temperature Yesterday

Maximum temperature yesterday: 88 °F (at 12:53 pm)
Minimum temperature yesterday: 82 °F (at 2:51 am)
Average temperature yesterday: 84 °F

High & Low Weather Summary for the Past Weeks

 TemperatureHumidityPressure
High90 °F (Jul 6, 1:50 pm)96% (Jun 29, 7:53 am)29.90 "Hg (Jun 29, 7:53 am)
Low78 °F (Jun 29, 11:55 am)55% (Jul 9, 1:52 pm)29.70 "Hg (Jul 12, 3:58 am)
Average83 °F80%29.80 "Hg
* Reported Jun 27 6:55 pm — Jul 12 6:52 pm, Majuro. Weather by CustomWeather, © 2020

Note: Actual official high and low records may vary slightly from our data, if they occured in-between our weather recording intervals... More about our weather records

Majuro Weather History for the Previous 24 Hours

Scroll right to see more
 ConditionsComfort  
Time TempWeatherWind HumidityBarometerVisibility
6:52 pm
Sun, Jul 12
80 °FCloudy.9 mph89%29.78 "Hg15 mi
5:51 pm81 °FCloudy.15 mph88%29.75 "Hg15 mi
4:51 pm81 °FCloudy.12 mph87%29.72 "Hg15 mi
3:53 pm81 °FCloudy.10 mph86%29.73 "Hg15 mi
2:51 pm79 °FSprinkles. Cloudy.14 mph91%29.73 "Hg10 mi
1:53 pm84 °FCloudy.7 mph79%29.73 "Hg15 mi
12:53 pm85 °FCloudy.10 mph81%29.75 "Hg15 mi
11:50 am86 °FCloudy.8 mph86%29.77 "Hg15 mi
10:51 am85 °FCloudy.7 mph80%29.78 "Hg15 mi
9:50 am84 °FSprinkles. Cloudy.8 mph77%29.78 "Hg14 mi
8:51 am86 °FBroken clouds.7 mph76%29.76 "Hg15 mi
7:50 am84 °FBroken clouds.8 mph83%29.75 "Hg15 mi
6:51 am84 °FPassing clouds.9 mph77%29.72 "Hg15 mi
5:54 am82 °FPassing clouds.9 mph83%29.70 "Hg15 mi
4:58 am83 °FMostly cloudy.12 mph81%29.70 "Hg15 mi
3:58 am83 °FMostly cloudy.13 mph77%29.70 "Hg15 mi
2:53 am83 °FMostly cloudy.12 mph78%29.70 "Hg15 mi
1:54 am83 °FMostly cloudy.14 mph78%29.73 "Hg15 mi
11:51 pm
Sat, Jul 11
83 °FOvercast.13 mph76%29.75 "Hg15 mi
10:58 pm84 °FOvercast.12 mph74%29.78 "Hg15 mi
9:58 pm84 °FOvercast.14 mph73%29.77 "Hg15 mi
8:55 pm85 °FMostly cloudy.16 mph71%29.77 "Hg15 mi
7:55 pm85 °FMostly cloudy.17 mph67%29.75 "Hg15 mi
Weather by CustomWeather, © 2020

See weather overview